Location: La Silve
(44.2414°N, 5.8889°E)
Time: 13:09:15
(UTC+00:00)

CZ-4 R/B - Pass Details

Date: 01 December 2020
Orbit: 532 x 598 km, 97.7° (Epoch: 25 January)

Event Time Altitude Azimuth Distance (km) Brightness Sun altitude
Rises 19:09:43 0° 203° (SSW) 2,711 5.1 -33.5°
Enters shadow 19:10:51 - 210° (SSW) 2,304 4.8 -33.7°
Exits shadow 19:16:50 15° 298° (WNW) 1,580 4.2 -34.8°
Drops below altitude 10° 19:18:01 10° 313° (NW) 1,875 4.5 -35.0°
Sets 19:20:45 0° 332° (NNW) 2,793 5.3 -35.5°
